Location: Rancho Del Sol Observatory
(38.7214°N, 120.6350°W)
Time: 11:13:24
(UTC-07:00)

Cosmos 2221 Rocket - Visible Passes

Search period start: 30 October 2014 00:00
Search period end: 08 November 2014 23:00
Orbit: 621 x 651 km, 82.5° (Epoch: 29 October)

Date Brightness Start Highest point End Pass type
(mag) Time Alt. Az. Time Alt. Az. Time Alt. Az.
30 Oct 5.8 04:35:46 23° ENE 04:36:28 24° ENE 04:40:01 10° SE visible
30 Oct 4.5 06:13:29 23° WNW 06:14:36 26° W 06:18:16 10° SW visible
30 Oct 5.4 18:43:07 10° SW 18:47:13 36° WNW 18:51:19 10° N visible
31 Oct 5.1 05:01:06 30° SE 05:01:06 30° SE 05:03:30 10° SSE visible
31 Oct 6.5 19:07:04 10° WSW 19:10:01 17° WNW 19:12:59 10° NNW visible
01 Nov 5.9 05:25:44 13° S 05:25:44 13° S 05:26:12 10° S visible
03 Nov 6.3 17:36:15 10° WSW 17:39:35 21° WNW 17:42:55 10° NNW visible
07 Nov 6.7 17:30:23 10° W 17:32:01 12° WNW 17:33:39 10° NW visible
